Location: Bednik
(45.3500°N, 16.3833°E)
Time: 12:44:13
(UTC+00:00)

Daily predictions for brighter satellites

Satellite Brightness Start Highest point End
(mag) Time Altitude Azimuth Time Altitude Azimuth Time Altitude Azimuth
Ariane Rocket 3.1 18:32:45 10° SSE 18:37:48 86° WSW 18:42:54 10° NNW
USA 234 4.2 18:33:42 10° E 18:39:45 42° NNE 18:45:49 10° NW
Cosmos 1992 Rocket 4.0 18:34:43 10° NNW 18:40:00 82° ENE 18:45:13 10° SSE
ARGOS 3.8 18:36:43 10° S 18:42:03 62° W 18:47:23 10° NNW
Resurs 1-3 4.0 18:37:57 10° SE 18:42:08 45° ENE 18:46:20 10° N
CZ-2C R/B 2.6 18:38:42 10° NNE 18:43:52 64° ESE 18:49:01 10° S
SL-8 R/B 3.8 18:40:48 10° WNW 18:45:40 86° SSW 18:50:31 10° ESE
Meteor 2-3 Rocket 4.3 18:41:23 10° SSW 18:47:08 66° WNW 18:52:56 10° N
USA 186 2.5 18:45:29 10° S 18:47:40 36° W 18:49:48 10° NNW
FREGAT/IRIS 3.2 18:49:08 10° S 18:51:42 49° W 18:54:17 10° NNW
Cosmos 2218 Rocket 4.1 18:47:14 10° S 18:53:24 82° W 18:59:36 10° N
H-2A R/B 3.7 18:52:03 10° SSW 18:56:45 34° W 19:01:22 10° NNW
Cosmos 1782 3.3 18:53:45 10° NNW 18:57:44 65° W 19:01:43 10° S
Cosmos 1805 Rocket 3.9 18:55:33 10° SSE 18:59:46 46° E 19:04:02 10° NNE
Cosmos 1980 Rocket 3.5 18:55:53 10° N 19:00:35 26° NE 19:05:14 10° ESE
ERBS 3.8 18:58:47 10° WSW 19:01:55 38° NNW 19:05:04 10° NE
DMSP B5D2-2 4.1 19:00:35 10° NNE 19:05:50 88° WNW 19:11:05 10° SSW
Cosmos 1140 Rocket 4.3 19:04:47 10° SSE 19:09:19 30° E 19:13:52 10° NE
ATLAS 5 CENTAUR R/B 2.4 19:03:36 10° NW 19:09:21 89° SW 19:15:44 11° SE
OE (NEXTSAT) 4.3 19:05:55 10° W 19:09:25 74° SSW 19:12:16 14° ESE
SL-4 R/B 2.5 19:06:12 10° SSW 19:09:49 33° SE 19:13:13 10° ENE
Cosmos 1833 Rocket 2.8 19:11:00 10° S 19:16:24 51° ESE 19:21:51 10° NE
Cosmos 1697 Rocket 3.0 19:11:14 10° NNW 19:16:45 54° ENE 19:21:20 15° SE
CENTAUR R/B 4.2 19:17:41 11° ESE 19:17:50 11° E 19:19:20 10° E
Cosmos 2228 Rocket 3.5 19:13:40 10° NNW 19:18:05 65° W 19:22:26 10° S
SPOT 3 Rocket 3.7 19:15:33 10° S 19:20:45 79° WSW 19:26:00 10° NNW
Cosmos 389 Rocket 2.3 19:17:41 10° N 19:21:08 87° ENE 19:24:21 12° S
Cosmos 1633 Rocket 3.9 19:18:04 13° SSE 19:21:26 32° E 19:25:22 10° NNE
Cosmos 1812 2.6 19:19:10 10° N 19:23:02 77° E 19:26:34 12° SSE
Cosmos 1727 Rocket 4.4 19:16:51 10° NNW 19:23:10 70° W 19:29:28 10° S
Cosmos 2251 Rocket 4.4 19:18:19 10° SW 19:23:27 53° WNW 19:28:38 10° NNE
Cosmos 1867 4.4 19:19:10 10° S 19:23:43 28° ESE 19:28:17 10° NE
Cosmos 1656 3.8 19:22:52 10° NNW 19:28:20 73° WSW 19:33:31 12° SSE
IRIDIUM 104 4.4 19:26:00 10° S 19:31:13 81° W 19:36:28 10° N
Resurs 01 Rocket 1.7 19:27:32 10° SSE 19:31:54 83° WSW 19:36:22 10° NNW
Cosmos 1707 Rocket 3.6 19:28:11 10° N 19:32:32 63° E 19:35:43 17° SSE
Cosmos 220 Rocket 3.9 19:28:35 10° NNW 19:32:49 85° WSW 19:36:05 17° SSE
Landsat 7 4.2 19:30:06 18° SE 19:33:26 48° ENE 19:38:01 10° N
Cosmos 1441 Rocket 3.3 19:34:10 10° SSW 19:37:58 75° WNW 19:41:45 10° N
FALCON 9 DEB 3.6 19:34:43 10° SSW 19:37:58 37° SE 19:41:14 10° ENE
Cosmos 1934 Rocket 4.2 19:32:24 10° SSE 19:38:34 55° E 19:44:46 10° NNE
Cosmos 614 Rocket 4.1 19:36:40 10° SSW 19:41:50 81° WNW 19:47:04 10° NNE
NOSS 3-2 (A) 4.0 19:37:56 10° S 19:42:47 31° ESE 19:48:11 10° NE
IGS 5A 3.6 19:41:07 22° SE 19:43:34 58° ENE 19:47:39 10° N
Cosmos 2360 4.3 19:38:02 10° NNW 19:43:46 67° ENE 19:47:32 22° SE
Cosmos 1470 Rocket 4.4 19:42:24 23° SE 19:44:05 31° E 19:47:58 10° NNE
USA 267 3.3 19:40:48 10° NE 19:47:23 90° NW 19:53:56 10° SW
NOSS 3-2 (C) 4.4 19:48:31 21° ESE 19:48:56 21° ESE 19:53:21 10° ENE
SWAS 4.3 19:45:02 10° SSW 19:49:18 76° ESE 19:53:39 10° NNE
GP-B 3.3 19:46:31 10° N 19:50:53 53° E 19:53:14 25° SSE
SL-24 R/B - RUBIN 2 4.5 19:44:27 10° NW 19:51:10 82° NE 19:55:11 24° SE
Cosmos 1821 Rocket 4.2 19:45:41 10° SSW 19:51:48 74° W 19:58:02 10° N
COSMOS 2406 3.8 19:48:44 10° SW 19:54:25 60° WNW 20:00:07 10° NNE
Shenzhou-11 Module 2.8 19:53:54 10° WSW 19:55:30 28° SW 19:55:30 28° SW
Meteor 2-20 Rocket 4.5 19:50:21 10° N 19:56:31 66° ENE 20:00:27 23° SSE
Cosmos 921 Rocket 4.0 19:52:52 10° N 19:56:42 32° ENE 19:58:03 26° E
ERS-1 Rocket 3.4 19:56:08 26° SE 19:58:35 47° ENE 20:03:23 10° N
Intercosmos 25 4.3 19:54:34 10° NNW 19:58:47 44° W 20:01:25 14° SSW
Cosmos 1862 Rocket 3.7 19:54:38 10° N 19:59:05 59° E 20:01:01 31° SE
SL-16 R/B 3.8 19:54:47 10° N 19:59:18 23° NE 20:02:26 15° E
Lacrosse 5 3.3 19:57:54 10° NW 20:02:25 31° NNE 20:06:22 13° E
Sich 1 4.0 19:59:51 10° SSW 20:04:09 50° WNW 20:08:29 10° N
Cosmos 2369 3.8 19:58:50 10° NNW 20:04:35 75° WSW 20:08:05 24° SSE
SAR-Lupe-2 4.1 20:04:17 10° NNE 20:07:36 37° E 20:07:36 37° E
Cosmos 1818 4.0 20:04:03 10° NW 20:09:22 54° WSW 20:12:24 25° S
Cosmos 2082 Rocket 2.1 20:03:44 10° SSW 20:09:26 79° ESE 20:15:08 10° NNE
BREEZE-M DEB (TANK) 3.1 20:07:11 10° WNW 20:09:27 31° N 20:09:54 27° NNE
Cosmos 1954 Rocket 4.0 20:06:50 15° S 20:11:08 65° ESE 20:16:25 10° NNE
Cosmos 2123 Rocket 4.0 20:07:32 10° N 20:13:46 82° W 20:18:06 21° S
Cosmos 2278 3.7 20:08:08 10° NNW 20:13:54 89° ENE 20:16:44 31° SSE
Spot 2 Rocket 3.7 20:11:25 24° S 20:14:34 72° WSW 20:19:42 10° NNW
Cosmos 1535 Rocket 4.5 20:08:44 10° S 20:14:53 84° W 20:21:03 10° N
Meteor 1-4 Rocket 3.1 20:18:00 10° NNW 20:21:23 50° W 20:22:26 35° SSW
CARTOSAT-1 3.5 20:20:05 43° SSE 20:21:25 74° ENE 20:25:44 10° N
Cosmos 1184 Rocket 2.8 20:21:02 53° SSW 20:21:42 78° W 20:25:01 10° N
Cosmos 2322 Rocket 3.6 20:17:02 10° N 20:21:52 28° NE 20:24:25 20° E
Cosmos 1190 Rocket 4.5 20:17:00 10° SSW 20:22:13 63° WNW 20:27:30 10° NNE
USA 234 3.2 20:18:45 29° SE 20:22:25 88° SW 20:29:00 10° NW
Terra 2.2 20:21:08 37° ESE 20:22:32 48° ENE 20:27:07 10° N
Cosmos 1605 Rocket 3.9 20:21:08 23° S 20:25:11 80° E 20:31:19 10° N
Cosmos 1933 Rocket 3.6 20:24:16 46° SE 20:25:13 58° E 20:29:35 10° NNE
Cosmos 407 Rocket 4.5 20:20:04 10° SW 20:25:14 49° WNW 20:30:22 10° NNE
Meteor 1-20 Rocket 4.2 20:23:25 24° S 20:27:04 80° E 20:32:56 10° NNE
Cosmos 1238 Rocket 2.4 20:28:02 61° NNE 20:28:02 61° NNE 20:30:34 10° N
Okean 1 3.4 20:27:02 10° N 20:31:02 58° E 20:31:27 55° ESE
Cosmos 1602 3.7 20:31:37 60° ESE 20:31:49 62° E 20:35:42 10° NNE
ATLAS 3B R/B 4.3 20:34:00 15° E 20:34:00 15° E 20:36:09 10° ENE
Cosmos 1437 Rocket 3.3 20:31:55 10° N 20:35:27 41° ENE 20:35:27 41° ENE
Cosmos 2360 Rocket 4.0 20:31:38 10° N 20:35:53 21° NE 20:38:35 15° E
SPOT 5 2.5 20:35:54 53° SSE 20:36:54 90° NE 20:41:16 10° NNW
USA 238 DEB 3.5 20:31:47 10° SSW 20:38:21 74° SE 20:45:14 10° NE
USA 238 3.5 20:31:54 10° SSW 20:38:28 73° ESE 20:45:20 10° NE
Meteor 1-19 Rocket 4.1 20:35:15 10° N 20:40:40 68° ENE 20:42:13 46° SE
Iridium 4 Rocket 4.1 20:41:58 30° ENE 20:41:58 30° ENE 20:45:25 10° NNE
SPOT 1/Viking Rocket 4.2 20:39:53 26° SSW 20:42:31 50° W 20:47:36 10° NNW
Cosmos 1980 Rocket 2.5 20:39:24 10° NNW 20:45:00 60° WSW 20:47:05 37° S
Cosmos 1703 Rocket 3.4 20:42:24 10° N 20:46:45 67° E 20:47:05 63° ESE
Cosmos 2242 Rocket 3.5 20:42:18 10° N 20:46:47 89° WSW 20:47:29 63° S
Meteor 1-14 Rocket 4.2 20:46:52 43° SSE 20:48:49 70° E 20:54:43 10° NNE
SL-4 R/B 2.4 20:45:31 10° WSW 20:49:19 55° NNW 20:51:35 21° NE
Cosmos 405 Rocket 2.6 20:49:22 75° W 20:49:27 76° W 20:53:11 10° N
Cosmos 1763 Rocket 3.7 20:44:39 10° NNW 20:49:58 62° ENE 20:51:08 49° ESE
BREEZE-M DEB (TANK) 3.7 20:47:21 10° WNW 20:50:36 56° N 21:00:43 10° E
Genesis I 3.5 20:46:57 10° NW 20:50:44 54° WSW 20:50:44 54° WSW
ATLAS 5 CENTAUR R/B 4.4 20:49:31 10° WNW 20:53:37 19° WSW 20:57:17 12° SSW
MOS 1-B Rocket 4.4 20:50:50 10° NNE 20:56:04 37° E 20:56:13 37° E
Cosmos 1459 Rocket 4.2 20:58:06 46° SE 20:59:32 56° E 21:05:43 10° NNE
Cosmos 1697 Rocket 4.4 20:55:54 10° NW 21:00:19 24° WSW 21:03:04 17° SW
Cosmos 1153 Rocket 4.5 21:03:26 36° SSW 21:06:05 79° W 21:12:17 10° N
CENTAUR R/B 2.4 21:04:46 43° S 21:06:49 69° ESE 21:13:45 10° NE
Cosmos 1867 4.3 21:01:44 10° SW 21:07:02 52° NW 21:12:22 10° NNE
Meteor 1-18 Rocket 4.4 21:02:43 10° NNW 21:08:16 65° W 21:09:49 45° SSW
Okean 1-7 2.9 21:04:05 10° N 21:08:25 81° W 21:08:30 81° WSW
Okean 3 4.1 21:10:19 10° N 21:13:59 45° NE 21:13:59 45° NE
FALCON 9 DEB 4.4 21:11:39 10° W 21:15:00 41° NNW 21:15:22 39° N
Cosmos 1802 Rocket 4.1 21:13:52 51° SE 21:15:05 60° E 21:21:21 10° NNE
Cosmos 1850 Rocket 3.9 21:14:18 57° SSW 21:15:25 89° WNW 21:20:45 10° NNE
Thor Agena Rocket 4.4 21:12:26 10° NNE 21:16:25 35° E 21:16:25 35° E
SL-27 R/B 4.5 21:19:36 22° NNE 21:19:36 22° NNE 21:20:55 10° NNE
Meteor 2-4 Rocket 3.5 21:12:18 10° N 21:18:02 85° E 21:18:53 65° SSE
Cosmos 1515 4.4 21:15:02 10° NNW 21:18:23 50° WNW 21:18:23 50° WNW
Cosmos 44 3.8 21:17:47 10° NNW 21:22:33 50° NE 21:23:09 47° ENE
ATLAS 5 CENTAUR R/B 2.9 21:19:44 10° NNW 21:22:36 48° NE 21:23:25 43° E
Cosmos 2346 Rocket 4.5 21:20:02 10° N 21:26:02 61° ENE 21:26:55 55° ESE
Spot 4 4.2 21:27:26 52° ENE 21:27:26 52° ENE 21:32:06 10° N
USA 267 4.5 21:23:59 10° NE 21:30:00 41° NNW 21:36:02 10° W
BREEZE-M DEB (TANK) 4.4 21:16:32 10° W 21:32:39 85° N 21:35:19 32° E
NOSS 3-2 (A) 4.1 21:27:36 10° WSW 21:33:14 53° NW 21:39:43 10° NNE
NOSS 3-2 (C) 3.5 21:35:51 29° SW 21:38:57 72° NW 21:45:33 10° NE
Cosmos 1816 Rocket 4.5 21:34:53 10° N 21:41:10 65° E 21:41:57 60° ESE
Cosmos 841 Rocket 3.3 21:36:42 10° NNW 21:41:57 90° ENE 21:42:00 88° SSE
Cosmos 540 Rocket 3.3 21:38:11 10° NNW 21:43:22 89° NNE 21:43:22 89° NNE
SL-16 R/B 2.2 21:38:17 10° NNW 21:43:56 68° WSW 21:44:17 66° SW
Lacrosse 5 1.8 21:40:46 10° NW 21:45:31 77° WNW 21:45:31 77° WNW
Cosmos 1570 Rocket 4.0 21:47:54 10° NNW 21:53:10 72° WSW 21:53:10 72° WSW
Tsikada Rocket 3.9 21:47:49 10° N 21:54:12 73° E 21:54:55 66° SE
Cosmos 2219 Rocket 3.6 21:50:08 10° N 21:55:04 29° NE 21:56:38 26° E
Cosmos 2208 Rocket 3.9 21:50:03 10° NNW 21:55:11 80° WNW 21:55:11 80° WNW
Cosmos 1814 Rocket 3.9 21:50:29 10° NNW 21:55:32 82° WNW 21:55:32 82° WNW
Cosmos 2084 Rocket 4.5 21:59:01 41° NNE 21:59:01 41° NNE 22:01:58 10° NE
Cosmos 2237 4.1 21:54:38 10° NNW 22:00:24 83° ENE 22:00:34 81° E
Terra 3.7 22:00:02 20° W 22:00:31 20° W 22:04:03 10° NW
USA 234 4.4 22:06:06 26° WSW 22:06:06 26° WSW 22:11:19 10° WNW
Cosmos 2322 Rocket 2.5 22:00:41 10° NNW 22:06:13 55° WSW 22:06:13 55° WSW
Meteor 1-11 Rocket 3.7 22:09:09 70° WSW 22:09:30 73° WNW 22:15:15 10° N
Cosmos 2360 Rocket 2.2 22:14:51 10° NNW 22:20:19 76° W 22:20:19 76° W
COSMOS 2428 3.6 22:16:13 10° NNW 22:21:37 40° NE 22:22:37 37° E
ATLAS 3B R/B 2.4 22:21:12 73° SSW 22:21:54 86° SE 22:28:34 10° NE
ALOS 2 3.4 22:27:44 49° NNW 22:27:44 49° NNW 22:31:01 10° NNW
Cosmos 1725 Rocket 4.3 22:27:19 52° WSW 22:28:20 58° WNW 22:34:35 10° N
SL-4 R/B 4.3 22:26:07 10° WNW 22:27:13 16° NW 22:27:13 16° NW
Nimbus 7 Rocket 4.2 22:26:08 10° NNE 22:32:02 85° WNW 22:32:15 82° WSW
Cosmos 2297 Rocket 4.5 22:34:19 11° E 22:34:19 11° E 22:35:15 10° ENE
Cosmos 1536 4.5 22:34:39 31° NW 22:34:39 31° NW 22:37:16 10° N
Cosmos 1743 4.5 22:38:17 31° N 22:38:17 31° N 22:40:25 10° N
Cosmos 2333 Rocket 2.3 22:35:23 10° NNW 22:41:09 66° ENE 22:41:19 66° ENE
Lacrosse 4 Rocket 2.9 22:45:23 34° NNE 22:45:23 34° NNE 22:47:49 10° NNE
Cosmos 2237 Rocket 3.9 22:40:28 10° N 22:45:12 26° NE 22:47:32 20° E
Meteor 2-11 Rocket 4.3 22:51:23 81° WSW 22:51:32 82° W 22:57:40 10° N
Cosmos 44 Rocket 4.0 22:52:38 10° NNW 22:57:29 49° NE 22:57:31 49° NE
CENTAUR R/B 4.1 22:52:25 10° W 22:58:06 34° NNW 23:04:42 10° NNE
Cosmos 968 Rocket 3.7 22:59:01 66° N 22:59:01 66° N 23:03:27 10° NNE
Cosmos 1975 4.4 23:02:22 34° NNE 23:02:22 34° NNE 23:04:43 10° NNE
Cosmos 1354 Rocket 4.3 23:07:09 61° ENE 23:07:09 61° ENE 23:11:42 10° NNE
Resurs 1-4 Rocket 4.3 23:05:38 10° ENE 23:08:04 13° E 23:08:21 13° E
Cosmos 1464 Rocket 3.8 23:15:36 82° SSE 23:15:51 85° E 23:22:06 10° N
Cosmos 2227 Rocket 3.6 23:22:42 26° E 23:22:42 26° E 23:26:52 10° NE
Helios 1B rocket 3.9 23:19:18 10° NNE 23:21:48 33° NE 23:21:48 33° NE
CZ-4 R/B 4.2 23:18:42 10° NNE 23:23:00 63° NE 23:23:00 63° NE
Meteor 1-21 4.2 23:19:42 10° NNW 23:25:21 80° WNW 23:25:21 80° WNW
Nadezhda 4 Rocket 3.8 23:31:17 10° N 23:37:36 88° ENE 23:38:04 79° SSE
Cosmos 2219 Rocket 2.8 23:33:48 10° NW 23:38:19 45° WNW 23:38:19 45° WNW
Cosmos 1975 Rocket 4.4 23:39:29 10° NNW 23:42:25 34° NW 23:42:25 34° NW
Cosmos 2034 Rocket 3.8 23:43:53 77° SW 23:44:21 83° W 23:50:42 10° N
Okean 2 Rocket 3.8 23:45:22 53° NNE 23:45:22 53° NNE 23:48:53 10° N
SL-16 R/B 3.4 23:46:15 29° ESE 23:48:56 44° ENE 23:54:48 10° N
Cosmos 1300 Rocket 4.3 23:52:28 50° NNE 23:52:28 50° NNE 23:55:43 10° N
ADEOS II 4.4 23:49:31 10° ENE 23:51:49 13° E 23:53:32 11° ESE
Cosmos 1092 Rocket 4.0 23:45:35 10° N 23:51:50 72° E 23:52:45 62° SE
GEOS 3 Rocket 3.9 23:48:17 10° NE 23:53:17 58° ESE 23:53:17 58° ESE
CZ-2D R/B 3.2 23:49:23 10° NNE 23:54:20 33° E 23:54:54 33° ESE
